Stations météo

Publicité
Orange, France (7579): Température de l'air & dewpoint: 21.06.2019 12:00:00 - 27.06.2019 12:00:00 (CEST)Orange, France (7579): Température de l'air 5cm: 21.06.2019 12:00:00 - 27.06.2019 12:00:00 (CEST)Orange, France (7579): Vitesse du vent & gusts: 21.06.2019 12:00:00 - 27.06.2019 12:00:00 (CEST)Orange, France (7579): Direction du vent: 21.06.2019 12:00:00 - 27.06.2019 12:00:00 (CEST)Orange, France (7579): reduced air pressure: 21.06.2019 12:00:00 - 27.06.2019 12:00:00 (CEST)Orange, France (7579): visibility: 21.06.2019 12:00:00 - 27.06.2019 12:00:00 (CEST)Orange, France (7579): Quantités de précipitations: 21.06.2019 12:00:00 - 27.06.2019 12:00:00 (CEST)
Date & Time tt [°C] td [°C] tt 5cm [°C] ff [km/h] ff [knt] fx [km/h] fx [knt] dd ppp [hPa] vv [km] rr [mm]
27.06.2019 12:00:00 - - - - - - - - - - -
27.06.2019 11:00:00 32,7 19,6 36,7 4 2 11 6 WNW 1020,4 40 0,0
27.06.2019 10:00:00 30,0 19,4 33,1 6 3 11 6 NW 1020,8 20 0,0
27.06.2019 09:00:00 27,9 19,7 26,3 2 1 6 3 NNW 1021,2 20 0,0
27.06.2019 08:00:00 23,6 18,5 21,0 3 2 7 4 NNW 1021,2 40 0,0
27.06.2019 07:00:00 21,3 18,3 17,5 3 2 9 5 W 1021,2 25 0,0
27.06.2019 06:00:00 20,2 17,0 16,1 6 4 9 5 NNW 1021,3 31 0,0
27.06.2019 05:00:00 20,6 17,6 16,1 5 3 6 4 NNW 1021,4 32 0,0
27.06.2019 04:00:00 20,6 16,6 16,4 4 2 6 4 NE 1021,4 37 0,0
27.06.2019 03:00:00 21,0 17,0 16,6 2 1 4 2 N 1021,5 39 0,0
27.06.2019 02:00:00 22,1 17,2 17,1 0 0 6 3 N 1021,5 41 0,0
27.06.2019 01:00:00 23,0 17,9 17,9 5 3 8 5 SE 1021,7 43 0,0
27.06.2019 00:00:00 24,4 17,6 19,0 5 3 9 5 ESE 1021,7 52 0,0
26.06.2019 23:00:00 25,1 17,6 20,6 9 5 11 6 ESE 1021,6 59 0,0
26.06.2019 22:00:00 28,9 17,4 25,3 6 3 18 10 S 1021,1 60 0,0
26.06.2019 21:00:00 31,1 17,0 29,8 10 5 27 14 S 1020,5 59 0,0
26.06.2019 20:00:00 33,5 18,4 34,8 13 7 28 15 SSW 1020,0 37 0,0
26.06.2019 19:00:00 35,5 18,6 38,9 18 10 32 17 SW 1019,3 36 0,0
26.06.2019 18:00:00 36,9 18,0 41,5 19 10 30 16 SSW 1019,3 20 0,0
26.06.2019 17:00:00 38,8 15,8 45,2 7 4 20 11 WSW 1019,5 20 0,0
26.06.2019 16:00:00 38,2 16,5 45,7 6 3 25 14 SSW 1020,0 37 0,0
26.06.2019 15:00:00 37,4 17,4 43,5 9 5 23 13 S 1020,5 25 0,0
26.06.2019 14:00:00 36,3 18,4 42,9 14 7 24 13 SW 1021,2 20 0,0
26.06.2019 13:00:00 34,8 18,0 41,4 9 5 21 11 W 1021,9 42 0,0
26.06.2019 12:00:00 32,9 17,5 39,1 8 4 15 8 W 1022,3 58 0,0
26.06.2019 11:00:00 31,2 16,8 35,0 5 3 10 5 NNW 1022,5 20 0,0
26.06.2019 10:00:00 28,8 18,0 31,2 3 2 8 5 W 1022,8 37 0,0
26.06.2019 09:00:00 25,4 17,6 24,7 3 1 6 4 N 1022,7 44 0,0
26.06.2019 08:00:00 22,0 17,1 18,6 0 0 4 2 N 1022,5 16 0,0
26.06.2019 07:00:00 19,1 16,7 14,5 0 0 3 2 N 1022,2 31 0,0
26.06.2019 06:00:00 17,8 15,2 13,8 3 1 6 3 W 1021,9 33 0,0
26.06.2019 05:00:00 17,7 14,8 13,9 2 1 5 3 NNE 1021,7 41 0,0
26.06.2019 04:00:00 19,2 15,7 14,7 2 1 7 4 NW 1021,6 44 0,0
26.06.2019 03:00:00 20,4 15,8 15,4 3 2 8 4 N 1021,7 49 0,0
26.06.2019 02:00:00 20,5 15,9 15,4 6 3 9 5 NE 1021,9 46 0,0
26.06.2019 01:00:00 21,2 15,9 16,1 3 2 6 3 E 1022,0 56 0,0
26.06.2019 00:00:00 21,8 15,6 16,8 3 2 9 5 NE 1021,8 50 0,0
25.06.2019 23:00:00 23,0 15,8 18,2 5 3 7 4 ENE 1021,4 59 0,0
25.06.2019 22:00:00 25,2 15,8 20,2 4 2 11 6 N 1020,8 57 0,0
25.06.2019 21:00:00 28,5 15,8 27,8 8 5 19 10 SW 1020,4 60 0,0
25.06.2019 20:00:00 29,8 16,2 29,3 16 9 24 13 SW 1019,7 59 0,0
25.06.2019 19:00:00 31,0 16,6 31,6 11 6 40 22 WSW 1019,2 52 0,0
25.06.2019 18:00:00 33,4 16,3 36,4 27 15 42 23 WSW 1018,7 33 0,0
25.06.2019 17:00:00 35,7 16,4 39,5 19 10 34 19 SSW 1018,0 36 0,0
25.06.2019 16:00:00 36,3 17,0 41,6 21 11 31 17 SW 1018,0 40 0,0
25.06.2019 15:00:00 35,4 16,7 41,8 19 10 31 17 SW 1018,2 19 0,0
25.06.2019 14:00:00 35,7 17,9 42,0 14 8 30 16 SW 1018,4 47 0,0
25.06.2019 13:00:00 34,7 17,0 40,7 11 6 26 14 SSE 1018,6 51 0,0
25.06.2019 12:00:00 32,5 17,2 36,5 8 4 16 8 S 1019,1 59 0,0
25.06.2019 11:00:00 29,4 15,5 34,1 6 3 16 9 WSW 1019,3 27 0,0
25.06.2019 10:00:00 27,2 15,9 29,8 8 4 13 7 NW 1019,7 9 0,0
25.06.2019 09:00:00 23,9 15,9 23,2 4 2 8 4 NW 1020,0 8 0,0
25.06.2019 08:00:00 20,2 14,8 16,9 4 2 8 4 NNW 1020,1 8 0,0
25.06.2019 07:00:00 17,1 14,7 11,8 4 2 8 4 NW 1019,9 7 0,0
25.06.2019 06:00:00 15,3 13,3 11,1 8 4 10 5 ENE 1019,5 38 0,0
25.06.2019 05:00:00 15,6 13,1 11,4 3 2 11 6 NE 1019,2 41 0,0
25.06.2019 04:00:00 16,4 13,9 11,7 0 0 3 2 N 1018,9 44 0,0
25.06.2019 03:00:00 17,7 14,2 12,6 0 0 5 3 N 1018,8 50 0,0
25.06.2019 02:00:00 18,1 14,2 13,0 3 2 6 4 N 1018,5 53 0,0
25.06.2019 01:00:00 18,4 13,7 13,3 3 2 9 5 N 1018,4 58 0,0
25.06.2019 00:00:00 19,0 13,4 14,6 4 2 6 3 E 1018,3 60 0,0
24.06.2019 23:00:00 22,8 13,3 16,5 5 3 10 6 WSW 1018,2 60 0,0
24.06.2019 22:00:00 24,4 13,3 21,2 7 4 19 11 SW 1017,6 60 0,0
24.06.2019 21:00:00 26,4 14,5 25,1 11 6 26 14 SW 1017,1 59 0,0
24.06.2019 20:00:00 28,3 14,2 29,2 17 9 30 16 SW 1016,6 57 0,0
24.06.2019 19:00:00 29,8 14,4 31,2 18 10 29 16 SW 1016,3 49 0,0
24.06.2019 18:00:00 31,6 15,1 36,6 20 11 39 21 SSW 1016,1 34 0,0
24.06.2019 17:00:00 33,4 16,7 39,1 19 10 35 19 SSW 1015,8 43 0,0
24.06.2019 16:00:00 34,6 12,3 41,2 14 8 31 17 SW 1015,6 52 0,0
24.06.2019 15:00:00 34,0 12,9 40,1 13 7 33 18 SSW 1015,9 58 0,0
24.06.2019 14:00:00 32,7 12,9 39,6 13 7 29 16 SSW 1016,3 60 0,0
24.06.2019 13:00:00 31,9 14,1 37,8 13 7 26 14 S 1016,6 59 0,0
24.06.2019 12:00:00 29,5 14,1 35,4 11 6 22 12 S 1017,3 20 0,0
24.06.2019 11:00:00 27,4 15,7 32,8 3 2 11 6 SSW 1017,6 58 0,0
24.06.2019 10:00:00 25,4 16,3 28,8 3 2 11 6 E 1017,7 50 0,0
24.06.2019 09:00:00 22,5 16,8 20,9 5 3 9 5 NE 1018,1 25 0,0
24.06.2019 08:00:00 19,2 16,8 17,8 3 2 7 4 W 1018,1 20 0,0
24.06.2019 07:00:00 17,2 15,9 12,1 2 1 11 6 ENE 1017,5 19 0,0
24.06.2019 06:00:00 15,1 14,3 11,5 4 2 8 4 NE 1017,4 17 0,0
24.06.2019 05:00:00 15,7 14,7 11,2 5 3 10 5 SW 1017,1 20 0,0
24.06.2019 04:00:00 15,7 14,6 11,5 6 3 9 5 NE 1017,0 26 0,0
24.06.2019 03:00:00 15,9 14,6 11,7 6 3 7 4 ENE 1017,5 30 0,0
24.06.2019 02:00:00 17,6 15,8 12,0 0 0 4 2 N 1017,5 36 0,0
24.06.2019 01:00:00 18,3 15,4 13,1 3 2 7 4 ENE 1017,5 42 0,0
24.06.2019 00:00:00 20,0 16,6 16,5 6 4 10 6 SE 1017,1 40 0,0
23.06.2019 23:00:00 21,5 16,9 18,2 6 3 13 7 SSE 1016,9 37 0,0
23.06.2019 22:00:00 22,8 15,9 20,0 8 4 18 10 SSE 1016,1 48 0,0
23.06.2019 21:00:00 25,5 15,8 24,4 10 5 29 16 SSW 1015,2 55 0,0
23.06.2019 20:00:00 28,8 17,7 30,0 20 11 28 15 SSW 1014,2 33 0,0
23.06.2019 19:00:00 30,6 15,8 32,4 5 3 19 11 SW 1013,7 58 0,0
23.06.2019 18:00:00 31,7 14,4 33,5 4 2 16 9 S 1013,6 52 0,0
23.06.2019 17:00:00 31,5 13,7 35,8 8 5 19 11 E 1013,9 20 0,0
23.06.2019 16:00:00 32,2 12,4 39,6 6 3 18 10 NE 1013,9 20 0,0
23.06.2019 15:00:00 30,9 12,8 39,2 10 5 18 10 ESE 1014,3 54 0,0
23.06.2019 14:00:00 30,5 14,2 38,1 8 4 17 9 SSE 1014,5 57 0,0
23.06.2019 13:00:00 29,3 14,7 35,6 5 3 12 6 SW 1014,8 20 0,0
23.06.2019 12:00:00 27,4 15,4 32,6 7 4 16 9 W 1015,1 42 0,0
23.06.2019 11:00:00 26,4 16,0 32,3 5 3 17 9 NW 1014,8 54 0,0
23.06.2019 10:00:00 25,3 15,0 29,5 4 2 16 9 NNE 1014,7 40 0,0
23.06.2019 09:00:00 23,2 15,0 23,9 5 3 12 7 N 1014,7 45 0,0
23.06.2019 08:00:00 20,9 14,5 17,8 3 1 6 4 NE 1014,7 29 0,0
23.06.2019 07:00:00 18,0 14,7 12,4 5 3 7 4 N 1014,9 26 0,0
23.06.2019 06:00:00 17,5 14,4 12,8 4 2 12 6 NNW 1014,7 60 0,0
23.06.2019 05:00:00 17,9 14,4 15,6 7 4 18 10 NNW 1014,7 60 0,0
23.06.2019 04:00:00 19,5 14,7 16,8 12 7 20 11 NNE 1014,5 60 0,0
23.06.2019 03:00:00 20,1 14,7 16,8 5 3 24 13 N 1014,5 59 0,0
23.06.2019 02:00:00 20,8 14,7 17,5 6 3 19 10 NW 1014,3 60 0,0
23.06.2019 01:00:00 21,4 14,5 18,2 5 3 25 14 NNW 1014,5 60 0,0
23.06.2019 00:00:00 22,8 14,6 20,9 19 11 26 14 N 1014,2 60 0,0
22.06.2019 23:00:00 23,5 14,5 20,7 17 9 26 14 N 1014,1 60 0,0
22.06.2019 22:00:00 23,6 14,0 21,2 11 6 20 11 NW 1013,8 60 0,0
22.06.2019 21:00:00 25,9 14,0 25,8 12 7 30 16 NNW 1013,2 20 0,0
22.06.2019 20:00:00 27,3 14,7 27,9 17 9 27 14 NNW 1013,0 48 0,0
22.06.2019 19:00:00 28,1 14,0 29,9 16 9 34 19 NNW 1012,8 48 0,0
22.06.2019 18:00:00 29,6 13,4 36,7 21 11 35 19 N 1012,5 38 0,0
22.06.2019 17:00:00 29,6 13,8 37,8 16 9 30 16 N 1012,8 46 0,0
22.06.2019 16:00:00 29,1 13,3 37,9 16 9 29 15 NNW 1013,1 47 0,0
22.06.2019 15:00:00 28,9 14,7 37,7 18 10 31 17 N 1013,7 47 0,0
22.06.2019 14:00:00 28,1 14,7 35,8 14 7 31 17 NW 1014,0 20 0,0
22.06.2019 13:00:00 27,7 15,4 35,4 17 9 29 16 N 1014,4 60 0,0
22.06.2019 12:00:00 26,4 15,1 30,8 16 9 33 18 N 1014,5 37 0,0
22.06.2019 11:00:00 24,6 14,7 28,3 24 13 41 22 NNW 1014,6 28 0,0
22.06.2019 10:00:00 23,4 14,4 25,6 23 12 44 24 N 1014,9 26 0,0
22.06.2019 09:00:00 22,1 14,0 22,6 24 13 39 21 N 1014,8 25 0,0
22.06.2019 08:00:00 20,4 14,1 19,5 16 9 37 20 NNW 1014,8 36 0,0
22.06.2019 07:00:00 20,0 15,0 18,7 17 9 27 15 NNW 1014,5 43 0,0
22.06.2019 06:00:00 19,8 15,9 17,7 12 7 22 12 NNW 1014,5 59 0,0
22.06.2019 05:00:00 19,3 15,8 17,8 13 7 18 10 NNW 1014,5 59 0,0
22.06.2019 04:00:00 19,4 15,9 18,4 12 6 19 10 NW 1014,5 60 0,0
22.06.2019 03:00:00 19,9 15,9 18,8 14 7 21 11 NW 1014,5 58 0,0
22.06.2019 02:00:00 20,9 15,7 19,7 12 7 21 12 NW 1015,0 60 0,0
22.06.2019 01:00:00 20,9 15,7 19,7 11 6 20 11 NW 1015,2 60 0,0
22.06.2019 00:00:00 21,4 15,7 20,1 9 5 19 11 NW 1015,0 60 0,0
21.06.2019 23:00:00 21,7 15,8 20,6 13 7 23 12 NNW 1015,1 60 0,0
21.06.2019 22:00:00 21,9 15,5 20,8 14 8 28 15 NNW 1015,0 60 0,0
21.06.2019 21:00:00 22,9 15,7 22,0 18 10 27 14 NNW 1014,0 60 0,0
21.06.2019 20:00:00 24,6 16,1 24,9 18 10 29 16 NNW 1013,7 59 0,0
21.06.2019 19:00:00 26,1 16,6 26,7 16 9 25 14 N 1013,5 47 0,0
21.06.2019 18:00:00 26,8 15,8 27,9 19 10 31 17 N 1013,1 49 0,0
21.06.2019 17:00:00 27,1 15,5 27,8 16 9 29 16 N 1013,4 48 0,0
21.06.2019 16:00:00 28,1 14,3 31,6 18 10 30 16 NW 1013,9 44 0,0
21.06.2019 15:00:00 29,3 16,1 36,3 16 9 37 20 NW 1013,7 48 0,0
21.06.2019 14:00:00 28,8 15,7 36,9 9 5 29 16 W 1014,0 53 0,0
21.06.2019 13:00:00 28,3 14,9 34,7 9 5 18 10 W 1014,6 53 0,0
21.06.2019 12:00:00 26,6 15,3 30,5 5 3 21 11 NNW 1014,8 45 0,0

tt = Température de l'air
td = dewpoint
tt 5cm = Température de l'air 5cm
ff = Vitesse du vent
fx = gusts
dd = Direction du vent
ppp = reduced air pressure
vv = visibility
rr = Quantités de précipitations

stations d'obs. à proximité